Regional Weather Roundup
Issued by NWS

Home | Current Version | Previous Version | Graphics & Text | Print | Product List | Glossary On
Versions: 1 2 3 4 5 6 7 8 9 10 11 12 13 14 15 16 17 18 19 20 21 22 23 24 25 26 27 28 29 30 31 32 33 34 35 36 37 38 39 40 41 42 43 44 45 46 47 48 49 50
000
ASUS43 KDMX 290001
RWRIA

WEATHER ROUNDUP FOR IOWA
NATIONAL WEATHER SERVICE DES MOINES IA
700 PM CDT TUE MAR 28 2017

NOTE: "FAIR" INDICATES FEW OR NO CLOUDS BELOW 12,000 FEET WITH NO
SIGNIFICANT WEATHER AND/OR OBSTRUCTIONS TO VISIBILITY.

* - THESE STATIONS ARE NOT NWS STATIONS...THUS NOT UNDER NWS
QUALITY CONTROL.  THEY ALSO DO NOT REPORT WEATHER SUCH
AS PRECIPITATION OR FOG.

IAZ001>003-012>014-020>022-031>034-043>046-290100-
   NORTHWEST IOWA

CITY           SKY/WX    TMP DP  RH WIND       PRES   REMARKS
CARROLL *      CLOUDY    50  45  81 E8        30.12R
CHEROKEE *     PTCLDY    56  38  52 E6        30.10R
DENISON *      CLOUDY    50  43  76 E10G16    30.13R
LE MARS *      CLOUDY    57  37  47 E10       30.10R
ORANGE CITY *  PTCLDY    55  39  54 E7        30.10R
SHELDON *      CLOUDY    55  37  50 E13       30.10R
SIOUX CITY     PTCLDY    57  40  52 SE13      30.08
6HR MIN TEMP:  57; 6HR MAX TEMP:  63;

SPENCER        PTCLDY    55  40  56 E10       30.12
6HR MIN TEMP:  55; 6HR MAX TEMP:  61;

STORM LAKE *   CLOUDY    52  43  71 SE12G18   30.10R
$$

IAZ055>058-069>071-079>083-090>094-290100-
   SOUTHWEST IOWA

CITY           SKY/WX    TMP DP  RH WIND       PRES   REMARKS
ATLANTIC *     CLOUDY    50  43  76 E8        30.11R
AUDUBON *      CLOUDY    48  43  81 SE8       30.13R
CLARINDA *     CLOUDY    52  46  82 NE7       30.11R
COUNCIL BLFS * CLOUDY    48  45  87 E7        30.10R
CRESTON *      CLOUDY    50  43  76 NE10      30.10R
HARLAN  *      CLOUDY    50  45  81 E10       30.14R
LAMONI         CLOUDY    52  45  77 E7        30.08R
6HR MIN TEMP:  51; 6HR MAX TEMP:  56;

RED OAK *      CLOUDY    52  45  76 NE8       30.10R
SHENANDOAH *   CLOUDY    52  45  76 NE7       30.10R
$$

IAZ047>049-059>061-072>074-084-290100-
   CENTRAL IOWA

CITY           SKY/WX    TMP DP  RH WIND       PRES   REMARKS
AMES           MOCLDY    50  44  80 E6        30.12
6HR MIN TEMP:  50; 6HR MAX TEMP:  52;

ANKENY *       CLOUDY    50  43  76 E5        30.12S
BOONE *        CLOUDY    48  45  87 SE10      30.10R
CHARITON *     CLOUDY    50  45  81 E7        30.09R
DES MOINES     CLOUDY    52  42  69 NE9       30.10S
6HR MIN TEMP:  51; 6HR MAX TEMP:  53;

GRINNELL*      CLOUDY    49  44  82 E9        30.13R
KNOXVILLE *    CLOUDY    52  43  71 E5        30.09S
MARSHALLTOWN   CLEAR     50  43  77 SE8       30.11S
6HR MIN TEMP:  50; 6HR MAX TEMP:  52;

NEWTON *       CLOUDY    50  43  76 NE7       30.10S
PELLA *        CLOUDY    51  43  73 E6        30.11F
PERRY *        CLOUDY    49  43  78 E10       30.11R
$$

IAZ004>006-015-016-023>025-035-036-290100-
   NORTH CENTRAL IOWA

CITY           SKY/WX    TMP DP  RH WIND       PRES   REMARKS
ALGONA *       PTCLDY    55  41  58 E9        30.12R
CLARION *      PTCLDY    54  43  66 E8        30.11R
ESTHERVILLE    PTCLDY    53  41  63 E9        30.11
6HR MIN TEMP:  53; 6HR MAX TEMP:  59;

FORT DODGE *   PTCLDY    54  41  62 SE5       30.12R
MASON CITY     CLEAR     55  37  50 E9        30.12
6HR MIN TEMP:  52; 6HR MAX TEMP:  59;

FOREST CITY *    N/A     54  37  54 E7        30.12R
WEBSTER CITY * PTCLDY    52  45  76 SE8       30.10R
IOWA FALLS *     N/A     54  44  70 SE7       30.12R
$$

IAZ007>011-017>019-026>030-037>042-050>054-066-290100-
   NORTHEAST IOWA

CITY           SKY/WX    TMP DP  RH WIND       PRES   REMARKS
CEDAR RAPIDS   CLOUDY    50  43  77 E9        30.12
6HR MIN TEMP:  49; 6HR MAX TEMP:  52;

CHARLES CITY * CLEAR     55  36  47 E13       30.13R
CLINTON *      CLOUDY    48  41  76 E5        30.16R
DECORAH *      CLEAR     55  37  50 E8        30.12S
DUBUQUE        CLEAR     48  39  71 E3        30.15R
6HR MIN TEMP:  46; 6HR MAX TEMP:  51;

MONTICELLO *   CLEAR     50  39  66 NE10      30.14S
OELWEIN *      CLEAR     54  39  58 E12       30.14R
WATERLOO       CLEAR     54  37  52 E10       30.12R
6HR MIN TEMP:  53; 6HR MAX TEMP:  60;

$$

IAZ064-065-067-068-078-290100-
   EAST CENTRAL IOWA

CITY           SKY/WX    TMP DP  RH WIND       PRES   REMARKS
DAVENPORT      CLOUDY    47  39  74 NE10      30.15
6HR MIN TEMP:  47; 6HR MAX TEMP:  52;

IOWA CITY      CLOUDY    52  43  71 E8        30.15R
6HR MIN TEMP:  50; 6HR MAX TEMP:  54; 6HR PCP: TRACE;

MUSCATINE *    CLOUDY    52  43  71 E10       30.14R
QUAD CITIES    CLOUDY    50  40  68 E14       30.14
6HR MIN TEMP:  50; 6HR MAX TEMP:  53;

$$

IAZ062-063-075>077-085>089-095>099-290100-
   SOUTHEAST IOWA

CITY           SKY/WX    TMP DP  RH WIND       PRES   REMARKS
BURLINGTON     CLOUDY    51  47  86 E6        30.12R
6HR MIN TEMP:  50; 6HR MAX TEMP:  53;

FAIRFIELD *    CLOUDY    50  46  87 E12       30.11S
FORT MADISON * CLOUDY    50  48  93 E5        30.13S
KEOKUK *       CLOUDY    50  48  93 NE8G14    30.10F
OSKALOOSA *    CLOUDY    49  45  85 E12       30.11S
CENTERVILLE *  CLOUDY    50  45  81 NE10      30.10R
OTTUMWA        CLOUDY    51  46  83 E12       30.10S
6HR MIN TEMP:  51; 6HR MAX TEMP:  53;

WASHINGTON *   CLOUDY    50  48  93 E5        30.14R
$$

ABBREVIATIONS USED IN REMARKS
   TC - TEMPERATURES IN CELSIUS
  WCI - WIND CHILL INDEX
   HX - HEAT INDEX
  VSB - VISIBILITY
$$





USA.gov is the U.S. government's official web portal to all federal, state and local government web resources and services.